Location: Karlsdorf
(49.1419°N, 8.5378°E)
Time: 14:59:40
(UTC+00:00)

Daily predictions for brighter satellites

Satellite Brightness Start Highest point End
(mag) Time Altitude Azimuth Time Altitude Azimuth Time Altitude Azimuth
Cosmos 1092 Rocket 4.3 15:56:03 10° N 16:02:13 49° ENE 16:08:19 10° SSE
SJ-7 4.5 16:00:27 10° SSE 16:04:39 74° ENE 16:08:54 10° N
MOS 1 Rocket 3.9 16:00:55 10° N 16:05:53 63° WNW 16:10:30 10° SSW
COSMOS 2455 3.6 16:01:57 10° S 16:07:20 35° ESE 16:12:45 10° NE
Cosmos 2322 Rocket 3.6 16:09:41 10° N 16:13:35 18° NE 16:17:28 10° E
Cosmos 1697 Rocket 2.7 16:08:17 10° NNW 16:13:56 89° ENE 16:19:34 10° SSE
CZ-4C R/B 3.0 16:08:35 10° NW 16:15:24 58° NE 16:23:30 10° ESE
Cosmos 468 Rocket 4.0 16:13:29 10° SSW 16:18:38 77° ESE 16:23:52 10° NNE
Cosmos 1980 Rocket 2.3 16:13:33 10° NNW 16:19:10 57° ENE 16:24:42 10° SE
NOAA 12 4.1 16:16:29 10° SSE 16:21:49 82° ENE 16:27:09 10° NNW
ATLAS CENTAUR R/B 3.2 16:14:13 10° SW 16:24:48 68° SE 16:28:48 12° ENE
COSMO-SKYMED 1 4.3 16:22:41 11° ENE 16:24:57 15° E 16:27:25 10° ESE
Cosmos 1898 Rocket 3.8 16:19:54 10° NNW 16:25:09 75° WSW 16:30:20 10° SSE
Cosmos 1627 Rocket 4.5 16:19:06 10° N 16:25:13 61° ENE 16:31:16 10° SSE
Meteor PRIRODA 3.7 16:22:07 10° SSE 16:25:45 82° WSW 16:29:23 10° NNW
Cosmos 2369 3.7 16:20:13 10° NNW 16:25:59 77° ENE 16:31:42 10° SSE
Cosmos 1933 3.4 16:23:57 10° S 16:27:56 59° E 16:31:55 10° NNE
Cosmos 1633 Rocket 3.9 16:25:11 10° N 16:28:56 27° ENE 16:32:42 10° SE
USA 305 3.4 16:25:05 10° WNW 16:29:10 43° N 16:32:38 14° ENE
FengYun 1-2 T 4.2 16:24:48 10° SSE 16:30:23 81° ENE 16:35:57 10° NNW
Cosmos 2034 Rocket 4.1 16:24:25 10° S 16:30:35 83° W 16:36:48 10° N
NOSS 2-2 (C) 4.3 16:25:50 10° NW 16:30:52 84° NE 16:37:58 10° SE
CZ-4B R/B 3.0 16:26:58 10° S 16:30:57 77° WSW 16:34:45 10° NNW
Cosmos 1812 3.8 16:28:27 10° SE 16:31:39 25° E 16:34:51 10° NNE
Cosmos 1818 4.0 16:26:40 10° NNW 16:31:54 43° NE 16:37:05 10° ESE
CORIOLIS 4.2 16:26:45 10° SSE 16:32:05 63° ENE 16:37:28 10° N
SL-16 R/B 3.1 16:28:24 10° NNW 16:33:12 27° NE 16:37:58 10° ESE
YAOGAN 1 4.4 16:36:55 13° NE 16:36:55 13° NE 16:38:07 10° NNE
AQUARIUS 4.1 16:32:10 10° SSE 16:36:36 63° ENE 16:41:03 10° N
Cosmos 1151 Rocket 3.9 16:33:08 10° SSE 16:36:52 29° E 16:40:37 10° NNE
Cosmos 2082 Rocket 2.5 16:32:21 10° S 16:37:45 47° ESE 16:43:01 11° NE
USA 267 3.4 16:32:04 12° ENE 16:38:13 66° SE 16:44:43 10° SW
SMAP 3.0 16:36:46 10° SSE 16:41:25 81° ENE 16:46:06 10° NNW
Meteor 2-14 Rocket 4.4 16:35:43 10° N 16:41:50 72° ENE 16:47:53 10° SSE
Meteor 1-14 Rocket 4.4 16:37:37 10° N 16:43:20 52° ENE 16:49:06 10° SSE
Cosmos 1743 Rocket 4.4 16:41:10 10° NNW 16:45:23 52° W 16:49:36 10° S
Cosmos 2333 Rocket 3.9 16:44:44 10° N 16:47:49 14° NNE 16:49:04 14° NE
ARGOS 3.7 16:43:16 10° SE 16:48:07 35° ENE 16:52:59 10° N
MOS 1-B 4.4 16:42:33 10° SE 16:48:10 56° ENE 16:53:50 10° N
Cosmos 1763 Rocket 3.9 16:43:25 10° SW 16:48:26 61° WNW 16:53:32 10° NNE
Cosmos 2278 3.7 16:43:32 10° NNW 16:49:16 68° ENE 16:54:55 10° SE
Cosmos 1634 Rocket 4.0 16:43:05 10° S 16:49:21 69° E 16:55:40 10° NNE
Cosmos 2026 Rocket 3.9 16:43:44 10° N 16:49:55 86° E 16:55:59 10° S
Cosmos 1602 4.1 16:46:34 10° NNW 16:50:25 67° W 16:54:16 10° S
CZ-4B DEB 4.1 16:45:55 10° SSE 16:51:25 77° ENE 16:56:55 10° NNW
Cosmos 44 Rocket 3.4 16:49:13 10° NNW 16:54:05 53° NE 16:58:46 10° ESE
SeaSat 1 4.4 16:50:49 10° N 16:54:37 23° NW 16:58:24 10° W
Cosmos 1833 Rocket 3.0 16:49:50 10° SW 16:55:26 68° WNW 17:01:05 10° NNE
CZ-2C R/B 4.1 16:51:57 10° S 16:56:35 44° W 17:01:09 10° NNW
Cosmos 841 Rocket 3.4 16:51:34 10° SSW 16:56:43 77° ESE 17:01:46 11° NNE
Cosmos 1666 Rocket 3.6 16:52:22 10° N 16:56:47 59° ENE 17:01:07 10° SSE
MOS 1-B Rocket 4.3 16:52:07 10° NNE 16:57:54 49° E 17:04:27 10° S
Okean O Rocket 2.2 16:54:04 10° SE 16:58:07 35° ENE 17:02:11 10° N
Cosmos 1470 Rocket 4.2 16:56:02 10° N 17:00:06 33° ENE 17:04:10 10° SE
Cosmos 1328 Rocket 4.1 16:56:27 10° SSE 17:00:30 36° E 17:03:23 17° NNE
USA 306 3.3 16:57:25 10° WNW 17:01:33 48° N 17:03:36 26° ENE
H-2A R/B 1.9 16:56:33 10° SSE 17:01:38 67° ENE 17:06:37 10° N
Cosmos 1937 Rocket 4.5 16:56:42 10° NNW 17:01:52 51° WSW 17:06:59 10° S
Cosmos 1939 Rocket 3.7 16:58:56 10° S 17:02:58 54° W 17:06:58 10° NNW
Cosmos 2219 Rocket 3.9 17:01:27 10° N 17:04:28 14° NNE 17:04:47 14° NE
COSMOS 2406 3.4 16:58:50 10° SW 17:04:34 74° WNW 17:10:10 11° NNE
ISS -2.3 17:01:38 10° W 17:04:48 37° SSW 17:07:58 10° SE
ATLAS 2AS CENTAUR R/B 4.1 17:00:18 10° NW 17:06:32 26° N 17:10:37 17° NE
Cosmos 372 Rocket 4.3 17:01:32 10° NNW 17:06:46 70° WSW 17:11:58 10° SSE
CZ-2C R/B 3.0 17:02:59 12° NNE 17:07:30 40° E 17:12:21 10° SSE
Meteor 2-21 Rocket 4.4 17:01:33 10° N 17:07:42 83° E 17:13:45 10° S
Cosmos 1125 Rocket 3.9 17:03:15 10° NNW 17:08:13 41° ENE 17:13:10 10° SE
Cosmos 1500 3.7 17:06:37 10° NNW 17:10:19 60° W 17:13:59 10° S
USA 234 3.5 17:06:21 10° SE 17:12:54 74° SW 17:19:27 10° WNW
SKYMED 2 4.0 17:11:18 24° NE 17:13:26 41° E 17:17:32 10° S
Cosmos 1782 3.3 17:13:03 10° SSW 17:17:00 60° WNW 17:20:58 10° N
Sich 1 4.0 17:13:44 10° NNW 17:17:53 48° W 17:22:02 10° SSW
CZ-2D R/B 3.4 17:14:30 10° S 17:18:19 76° WSW 17:22:09 10° NNW
Cosmos 1655 Rocket 4.1 17:12:17 10° N 17:18:33 51° ENE 17:24:42 10° SSE
CZ-4B R/B 3.0 17:15:15 10° SSE 17:20:39 74° ENE 17:25:58 10° NNW
USA 307 3.1 17:17:03 10° WNW 17:21:14 52° NNE 17:22:25 39° ENE
Cosmos 2180 Rocket 4.5 17:16:47 10° S 17:23:00 62° E 17:29:11 10° NNE
Meteor 2-6 Rocket 4.2 17:17:35 10° S 17:23:11 60° E 17:28:31 11° NNE
SJ-11-01 4.2 17:20:15 10° SSE 17:24:56 65° ENE 17:29:39 10° N
ATLAS 5 CENTAUR R/B 2.1 17:18:05 10° NW 17:25:36 59° NNE 17:26:27 44° E
PAYLOAD B 4.5 17:21:17 10° S 17:26:52 73° WSW 17:32:30 10° NNW
deb Chang Zheng 4 3.4 17:26:27 10° SSE 17:30:45 82° ENE 17:35:05 10° NNW
ERBS 4.1 17:28:51 10° NW 17:30:53 19° N 17:30:53 19° N
Cosmos 2360 Rocket 2.8 17:32:01 10° NNW 17:37:13 35° NE 17:37:21 35° NE
Lacrosse 5 rocket 1.3 17:34:00 10° WNW 17:37:55 78° SW 17:39:14 42° SE
Cosmos 1666 3.5 17:35:47 10° NNW 17:39:23 50° W 17:42:58 10° S
ATLAS CENTAUR R/B 3.9 17:38:26 10° NNW 17:40:13 12° N 17:41:01 12° N
USA 308 2.9 17:39:40 10° WNW 17:43:54 61° NNE 17:44:08 59° NE
Cosmos 1515 Rocket 3.6 17:40:44 10° S 17:44:48 55° ESE 17:44:48 55° ESE
Meteor 1-11 Rocket 3.6 17:46:34 10° N 17:52:12 74° ENE 17:57:57 10° SSE
Meteor 1-10 Rocket 4.1 17:46:56 10° S 17:52:41 75° E 17:56:15 24° NNE
COSMOS 2455 3.5 17:47:12 10° SW 17:53:05 53° NW 17:56:40 24° NNE
COSMOS 2428 4.3 17:49:28 10° N 17:52:06 19° NNE 17:52:06 19° NNE
CZ-4 R/B 4.0 17:59:19 10° N 17:59:19 10° N 17:59:23 10° N
Cosmos 921 Rocket 2.8 17:53:53 10° SSW 17:57:55 82° SSE 17:57:55 82° SSE
Cosmos 2322 Rocket 2.1 17:52:59 10° NNW 17:58:43 70° ENE 18:00:16 48° SE
Cosmos 1570 Rocket 4.3 17:53:48 10° SW 17:58:59 63° WNW 18:01:47 27° N
SL-08 RB Rocket 3.6 17:55:27 10° SSE 18:00:04 86° WSW 18:04:43 10° NNW
COSMO-SKYMED 1 2.8 17:59:55 36° N 18:01:35 68° WNW 18:05:54 10° SSW
Cosmos 2298 Rocket 4.2 17:56:35 10° NNW 18:01:54 72° WSW 18:07:12 10° SSE
Cosmos 1980 Rocket 4.3 17:58:08 10° NW 18:02:49 27° WSW 18:07:28 10° SSW
CZ-4C R/B 3.9 17:57:10 10° NW 18:04:09 49° WSW 18:12:11 10° SSE
Cosmos 1356 Rocket 4.3 18:01:21 10° NNW 18:04:07 41° NNW 18:04:07 41° NNW
USA 305 3.3 18:05:06 10° WNW 18:08:38 60° NW 18:08:38 60° NW
Meteor 2-15 Rocket 4.3 18:03:35 10° S 18:09:43 85° E 18:14:07 20° NNE
Feng Yun 1-1 Rocket 4.4 18:05:23 10° SSE 18:11:19 83° WSW 18:17:12 10° NNW
YAOGAN 1 4.2 18:14:03 25° NNW 18:14:03 25° NNW 18:15:56 10° NNW
CZ-2C R/B 4.0 18:14:03 10° S 18:14:25 10° S 18:14:25 10° S
Cosmos 2266 Rocket 4.3 18:11:18 10° NNW 18:17:39 69° W 18:24:00 10° S
SL-16 R/B 2.4 18:12:10 10° NNW 18:17:50 69° WSW 18:21:04 26° S
Cosmos 2237 Rocket 4.4 18:17:16 10° N 18:17:59 12° N 18:17:59 12° N
USA 267 3.5 18:19:25 45° NNE 18:21:13 59° NNW 18:27:36 10° W
Cosmos 2082 Rocket 3.5 18:16:47 10° WSW 18:22:00 36° NW 18:24:53 22° N
ARGOS 4.4 18:23:15 10° SSW 18:28:19 40° W 18:33:24 10° NNW
GEOS 3 Rocket 3.6 18:30:35 76° NW 18:30:35 76° NW 18:35:23 10° NW
Cosmos 2333 Rocket 3.5 18:28:02 10° NNW 18:31:06 29° N 18:31:06 29° N
Okean O Rocket 3.5 18:30:37 10° SSW 18:34:30 29° W 18:38:25 10° NW
CZ-2C R/B 4.1 18:44:29 17° N 18:47:43 33° WNW 18:52:16 10° SW
Cosmos 2219 Rocket 3.9 18:44:21 10° NNW 18:46:30 23° N 18:46:30 23° N
ATLAS CENTAUR R/B 4.2 18:50:58 10° W 18:54:28 24° NW 18:54:28 24° NW
NOSS 3-4 (A) 4.2 18:49:55 10° NW 18:55:00 48° N 18:55:00 48° N
NOSS 3-4 (C) 4.2 18:50:01 10° NW 18:55:05 48° N 18:55:05 48° N
Meteor 1-27 Rocket 4.4 18:52:17 10° SSW 18:56:41 48° WSW 18:56:41 48° WSW
ATLAS 2AS CENTAUR R/B 3.8 18:52:46 10° NW 18:58:02 34° N 18:58:02 34° N
Lacrosse 5 rocket 4.5 19:14:14 10° W 19:14:52 12° W 19:14:52 12° W
Cosmos 2360 Rocket 3.7 19:15:58 10° NW 19:19:09 32° WNW 19:19:09 32° WNW
Cosmos 2322 Rocket 4.3 19:37:57 10° NW 19:42:10 22° W 19:42:10 22° W
